Location: Milo
(50.5667°N, 112.8833°W)
Time: 07:48:36
(UTC+00:00)

N. Korean satellite - Pass Details

Date: 05 December 2021
Orbit: 446 x 491 km, 97.3° (Epoch: 18 January)

Event Time Altitude Azimuth Distance (km) Brightness Sun altitude
Rises 00:46:00 0° 201° (SSW) 2,529 10.9 -11.7°
Reaches altitude 10° 00:48:30 10° 220° (SW) 1,646 10.3 -12.0°
Maximum altitude 00:51:06 19° 267° (W) 1,182 9.6 -12.4°
Drops below altitude 10° 00:53:42 10° 315° (NW) 1,636 9.6 -12.8°
Sets 00:56:11 0° 334° (NNW) 2,508 10.3 -13.2°
